Wind_Speed
42 42 41 42 42 43 43 43 43 43 43 43 43 44 45 44 45 45 45 44 43 43 43 43 43 42 41 41 40 40 39 38 38 37 37 38 38 37 37 36 36 35 35
42 42 42 42 43 44 44 44 44 44 44 44 45 45 45 46 46 46 46 47 46 45 45 45 45 44 43 43 42 42 41 40 40 40 39 39 39 39 38 38 37 37 37
42 43 43 43 43 43 44 45 45 46 46 47 47 48 48 47 48 48 48 47 48 48 46 46 46 46 45 45 44 43 43 43 42 42 41 41 40 40 40 39 39 38 38
42 43 43 44 44 44 44 44 45 46 47 48 49 49 49 49 49 50 50 50 50 50 49 48 47 47 48 47 46 45 45 44 43 43 43 42 42 40 40 40 40 40 40
42 43 43 44 44 44 44 45 46 47 48 48 49 50 50 50 50 51 51 52 52 52 52 51 50 49 49 48 48 47 47 45 44 44 44 43 42 41 41 41 41 41 41
42 43 44 44 45 45 45 46 46 46 47 48 49 50 50 51 51 52 52 53 53 53 53 54 53 53 51 50 49 49 49 47 46 46 45 45 44 43 42 42 42 42 41
43 43 43 43 44 45 45 45 45 45 46 47 49 50 51 52 52 53 53 53 54 54 54 55 55 55 54 53 53 50 49 49 48 47 47 46 46 45 44 43 43 43 43
43 43 43 43 43 43 45 44 44 45 45 46 48 49 51 52 53 54 54 54 55 55 55 55 56 55 55 55 54 53 52 51 50 50 48 47 46 46 46 45 45 44 44
42 43 43 43 43 43 44 44 44 44 44 45 45 47 49 50 51 53 54 54 55 55 55 55 55 55 54 54 53 53 53 52 52 51 50 49 48 48 47 47 46 45 45
41 42 43 44 44 44 43 43 44 44 44 45 45 46 47 48 49 51 53 54 54 54 55 55 55 55 54 54 53 53 53 52 52 51 50 49 49 49 48 48 47 47 46
41 41 42 43 44 43 43 43 43 44 44 44 44 45 44 45 46 47 49 50 51 52 53 53 54 53 53 53 53 52 52 53 52 52 52 51 50 50 50 49 48 48 47
40 40 41 41 42 42 42 43 43 42 42 42 43 43 43 43 44 45 46 47 49 50 51 51 52 53 54 53 53 53 52 53 53 53 53 52 51 50 50 49 49 49 48
38 38 38 39 39 40 40 40 40 40 39 39 39 40 41 41 41 43 44 44 45 47 49 50 51 51 52 53 54 53 53 53 53 53 53 53 52 51 50 50 50 50 49
37 37 36 37 37 38 38 38 37 37 37 37 37 37 38 39 39 40 41 42 42 44 45 47 48 49 50 51 52 54 54 54 53 53 53 53 53 52 51 50 50 49 49
35 35 35 35 35 36 36 37 37 37 37 36 36 36 37 38 38 38 39 40 40 42 43 44 45 46 47 48 50 52 53 54 54 53 53 53 53 53 51 50 50 50 50
32 32 32 33 33 33 34 34 35 36 36 35 35 35 36 36 37 38 38 38 38 39 40 42 43 44 46 46 47 48 49 50 52 52 52 52 52 51 52 51 50 49 48
31 31 31 30 30 31 32 32 33 33 34 35 34 34 34 34 35 36 37 37 37 38 38 39 41 42 44 45 45 45 46 47 49 50 50 49 49 49 49 49 49 48 48
30 30 31 31 30 29 29 30 30 31 32 32 32 32 32 32 33 34 35 36 37 37 37 37 38 40 41 42 42 43 43 44 44 45 47 47 46 46 46 46 47 48 48
30 30 31 30 29 29 28 29 29 29 30 30 31 31 31 31 31 32 33 34 35 36 36 36 37 38 39 40 41 40 40 41 41 43 44 45 45 45 45 45 46 46 47
30 29 30 29 29 29 29 28 28 29 29 30 30 30 30 30 30 30 31 32 33 34 34 35 35 37 38 39 40 40 40 41 41 42 42 43 43 43 44 44 44 44 45
31 30 29 29 29 30 30 30 30 29 29 29 30 30 30 29 29 29 29 30 31 32 33 34 34 35 36 37 38 39 39 39 40 40 41 41 42 42 43 43 43 43 43
32 32 31 30 30 30 30 30 29 30 30 29 29 29 29 29 29 28 28 28 29 30 31 32 32 33 34 35 36 37 37 37 38 38 39 39 40 41 41 41 42 41 41
32 32 32 31 31 30 29 28 28 28 28 28 28 29 29 28 28 28 27 28 28 29 30 30 30 31 31 32 33 34 35 36 36 37 37 37 38 39 39 40 40 40 40
32 32 32 31 30 29 28 27 27 27 27 28 28 27 27 27 27 27 27 27 28 28 29 29 30 30 31 32 32 32 33 34 35 37 37 37 37 38 38 38 38 39 39
31 31 31 31 30 30 29 28 28 27 27 27 27 28 28 27 27 27 26 27 27 27 28 28 29 30 30 30 31 31 32 33 34 35 36 36 36 36 37 38 38 38 39
30 29 29 29 29 29 29 29 29 28 27 27 27 28 28 28 27 27 27 27 27 27 28 28 29 30 30 30 31 32 32 32 33 34 34 35 35 36 36 37 38 38 39
Wind_Direction
266 265 264 263 261 260 260 259 258 257 256 255 254 253 251 250 249 249 249 248 248 248 248 247 247 247 248 249 250 251 251 251 253 254 254 254 255 255 256 256 257 257 258
266 265 264 263 262 261 260 260 259 258 257 256 254 253 252 251 250 249 249 248 248 248 248 247 246 247 248 249 250 251 251 252 252 253 254 254 255 255 256 256 257 258 258
265 265 263 263 262 262 261 260 259 258 257 256 255 253 253 252 251 250 249 249 248 247 247 247 246 246 246 248 249 250 252 252 252 252 254 254 255 256 255 255 256 258 258
266 265 264 263 263 262 261 260 260 259 258 257 256 254 253 252 250 250 250 249 248 248 247 247 247 246 246 247 247 248 251 252 252 253 254 255 255 255 256 256 256 257 258
268 265 264 264 264 263 262 261 260 260 259 258 256 255 254 252 250 250 250 249 249 248 248 247 246 246 247 247 248 247 249 250 252 253 254 254 255 255 255 256 257 257 259
269 266 265 264 264 264 263 262 261 260 259 259 257 255 254 252 252 251 250 249 249 249 248 247 247 246 247 247 248 248 248 249 251 252 252 253 254 255 255 256 257 257 257
270 268 267 266 265 264 264 263 262 261 261 260 258 256 254 253 252 250 250 249 248 248 248 248 247 247 247 247 248 248 248 249 250 251 252 253 254 255 256 256 256 257 257
271 269 268 267 266 265 265 264 263 262 262 261 259 258 257 255 253 251 250 250 249 248 248 248 247 247 247 248 248 247 247 248 250 251 252 252 253 254 256 256 257 258 257
272 271 269 268 267 266 266 265 264 263 263 262 261 260 259 258 256 253 252 251 250 249 249 249 247 247 247 247 247 247 247 248 249 249 251 252 252 254 255 256 257 258 258
274 272 270 269 267 266 266 265 265 265 264 263 262 261 260 259 257 254 252 251 250 249 248 248 247 246 246 247 248 248 247 248 248 248 249 251 253 254 255 256 257 258 259
275 273 271 269 268 266 266 266 266 265 264 263 263 262 261 258 256 254 253 251 250 249 248 247 246 246 246 247 247 247 247 247 248 249 250 251 252 253 254 255 257 258 259
277 275 273 271 269 268 267 268 267 266 265 264 263 262 261 259 256 254 253 252 251 249 248 247 246 245 245 246 247 247 247 248 248 249 250 251 252 253 254 255 257 259 260
279 277 275 273 270 269 268 267 266 265 265 265 265 263 261 259 258 255 254 253 252 250 249 247 247 246 246 246 246 246 247 247 248 249 250 251 252 253 254 256 258 259 259
280 278 276 274 272 270 268 266 265 265 265 266 264 263 261 259 256 254 254 254 253 252 249 249 247 246 246 246 246 246 246 247 248 249 250 251 252 253 254 255 257 257 259
283 280 277 276 274 271 269 267 266 265 265 265 264 263 261 258 255 254 253 253 253 253 251 249 248 247 246 246 247 246 246 247 248 249 250 251 252 253 254 255 256 257 259
284 281 279 276 274 272 270 268 267 266 265 265 264 263 261 258 255 253 252 252 253 253 252 249 247 246 245 246 246 246 246 246 247 248 250 251 251 253 253 254 255 256 258
284 282 280 279 275 273 271 269 269 267 266 265 264 263 260 258 256 254 251 252 253 254 253 250 247 247 247 246 246 246 246 247 247 248 249 250 251 252 253 254 255 257 258
284 282 281 280 278 275 271 270 269 267 267 266 264 261 260 259 258 256 254 253 252 252 251 250 249 248 246 246 247 246 246 246 247 248 248 249 250 252 252 254 256 257 257
285 283 281 280 279 277 273 270 269 269 269 267 264 262 260 259 259 258 256 255 252 250 250 250 249 248 247 246 246 245 246 246 247 248 249 250 252 252 252 254 255 257 258
284 284 284 281 279 277 275 273 271 269 269 267 264 263 261 260 260 259 257 256 253 252 252 250 248 247 246 246 246 245 245 245 247 249 250 251 252 252 253 254 255 256 257
286 285 284 282 279 277 276 275 273 270 268 267 265 263 262 260 259 259 257 255 253 251 250 249 249 249 248 248 247 245 246 246 248 249 250 250 251 252 253 255 255 256 257
288 285 284 281 279 277 276 275 273 270 268 266 265 264 262 260 258 257 257 255 253 251 250 249 249 250 249 248 247 246 247 248 248 249 250 251 251 252 253 255 256 257 259
289 286 283 281 279 277 275 274 273 270 267 266 265 263 261 260 258 258 257 256 254 251 250 251 249 249 249 247 246 248 249 249 249 249 250 251 252 253 254 256 257 257 258
291 288 284 281 279 277 274 273 271 269 267 264 263 262 261 259 258 258 257 256 254 252 250 250 248 248 248 248 249 250 250 250 251 250 251 252 254 254 254 255 256 257 258
294 290 286 282 279 277 274 272 271 269 267 264 261 259 259 258 257 257 257 256 253 252 250 248 247 247 248 249 250 251 251 252 252 252 252 252 253 254 254 255 256 258 260
296 292 288 285 281 277 274 273 271 268 266 263 260 258 256 255 255 255 255 254 253 252 250 248 249 249 250 251 252 252 253 252 252 253 253 253 254 255 256 257 259 260 261
Height
5700 5700 5701 5701 5701 5702 5703 5704 5705 5707 5708 5710 5711 5714 5716 5718 5721 5723 5725 5727 5729 5732 5735 5738 5741 5744 5747 5750 5753 5756 5758 5760 5763 5765 5767 5769 5772 5774 5776 5778 5780 5782 5783
5689 5689 5690 5690 5690 5691 5692 5693 5694 5695 5696 5698 5699 5702 5704 5706 5709 5711 5713 5716 5718 5721 5724 5727 5730 5733 5737 5740 5743 5746 5748 5750 5753 5756 5758 5760 5763 5765 5767 5769 5771 5773 5775
5678 5678 5678 5679 5679 5679 5680 5681 5682 5683 5684 5685 5687 5689 5692 5694 5697 5699 5702 5704 5706 5709 5712 5716 5719 5722 5725 5729 5732 5735 5738 5740 5743 5746 5748 5750 5753 5756 5758 5759 5762 5764 5765
5666 5666 5666 5667 5667 5668 5668 5669 5669 5670 5671 5672 5674 5676 5679 5682 5684 5686 5689 5691 5694 5697 5700 5703 5707 5710 5714 5717 5721 5724 5727 5729 5732 5735 5737 5740 5743 5746 5748 5750 5752 5754 5756
5654 5654 5654 5654 5654 5655 5656 5656 5657 5657 5658 5659 5661 5663 5665 5668 5670 5672 5675 5678 5681 5684 5687 5690 5694 5698 5701 5705 5709 5712 5715 5718 5721 5724 5727 5729 5732 5735 5738 5741 5743 5745 5746
5642 5641 5641 5642 5642 5642 5642 5643 5644 5644 5645 5646 5647 5649 5651 5653 5656 5659 5661 5664 5667 5670 5674 5677 5680 5684 5689 5693 5696 5700 5703 5706 5709 5713 5716 5718 5721 5724 5727 5730 5732 5734 5736
5629 5629 5629 5629 5629 5629 5630 5630 5631 5631 5632 5632 5633 5635 5637 5639 5641 5644 5647 5649 5653 5656 5659 5662 5666 5670 5674 5679 5683 5687 5690 5694 5697 5701 5704 5707 5710 5713 5716 5718 5721 5723 5726
5617 5617 5617 5617 5616 5617 5617 5617 5618 5618 5619 5619 5620 5621 5622 5624 5626 5629 5631 5634 5637 5641 5644 5648 5652 5656 5660 5664 5668 5673 5677 5681 5685 5688 5692 5695 5698 5701 5704 5707 5709 5712 5715
5604 5604 5604 5604 5604 5604 5604 5604 5605 5605 5605 5606 5606 5607 5608 5609 5611 5613 5616 5618 5621 5625 5629 5633 5637 5642 5646 5650 5654 5659 5663 5667 5672 5676 5679 5683 5686 5689 5692 5694 5697 5700 5703
5592 5591 5591 5591 5591 5591 5591 5591 5592 5592 5592 5592 5593 5593 5594 5595 5596 5598 5601 5603 5606 5609 5614 5618 5622 5627 5632 5636 5641 5645 5650 5654 5658 5662 5666 5670 5673 5676 5679 5682 5685 5688 5691
5580 5579 5579 5578 5579 5579 5579 5579 5579 5579 5579 5579 5579 5580 5581 5581 5583 5584 5586 5589 5592 5595 5599 5603 5608 5613 5618 5622 5627 5631 5636 5641 5645 5649 5653 5657 5660 5663 5666 5670 5672 5675 5678
5569 5568 5567 5566 5566 5566 5566 5566 5566 5566 5566 5566 5567 5567 5568 5569 5570 5572 5573 5575 5578 5581 5585 5589 5594 5599 5604 5608 5613 5618 5622 5627 5631 5635 5640 5644 5647 5650 5654 5657 5660 5662 5665
5558 5557 5556 5555 5555 5554 5554 5554 5554 5554 5554 5554 5555 5555 5556 5557 5558 5559 5561 5563 5565 5568 5572 5576 5580 5585 5590 5594 5599 5604 5609 5613 5618 5622 5626 5630 5634 5638 5641 5644 5647 5649 5652
5548 5546 5545 5544 5544 5543 5543 5542 5542 5543 5543 5543 5544 5544 5545 5546 5547 5548 5550 5552 5554 5557 5560 5563 5567 5572 5576 5580 5585 5590 5595 5599 5604 5608 5612 5617 5621 5624 5628 5631 5634 5636 5639
5538 5536 5535 5534 5533 5532 5532 5532 5532 5532 5532 5533 5533 5533 5534 5535 5536 5537 5539 5541 5543 5546 5548 5551 5555 5559 5563 5567 5571 5576 5581 5586 5590 5595 5599 5603 5607 5610 5614 5617 5620 5622 5625
5529 5527 5525 5524 5523 5522 5522 5522 5521 5522 5522 5522 5522 5523 5523 5524 5526 5527 5529 5531 5533 5535 5537 5539 5543 5546 5551 5555 5558 5562 5567 5572 5576 5581 5585 5589 5593 5596 5600 5603 5606 5609 5611
5520 5518 5516 5515 5514 5513 5512 5512 5512 5512 5512 5512 5512 5513 5513 5514 5515 5517 5518 5520 5523 5525 5526 5528 5531 5535 5539 5542 5546 5550 5554 5559 5563 5568 5572 5576 5579 5583 5586 5589 5592 5595 5597
5512 5510 5508 5506 5505 5504 5503 5503 5503 5503 5503 5502 5503 5503 5504 5505 5506 5507 5509 5510 5512 5514 5516 5519 5521 5524 5527 5531 5534 5538 5542 5547 5551 5555 5559 5563 5566 5569 5573 5576 5579 5581 5584
5503 5501 5499 5498 5497 5496 5495 5495 5494 5494 5494 5494 5494 5494 5495 5496 5497 5498 5499 5500 5502 5505 5507 5509 5512 5514 5517 5520 5524 5527 5531 5536 5540 5544 5547 5551 5554 5557 5561 5563 5566 5569 5571
5495 5493 5491 5489 5488 5487 5486 5486 5486 5486 5486 5486 5486 5486 5487 5488 5488 5489 5490 5492 5494 5496 5498 5500 5502 5505 5507 5510 5513 5517 5521 5525 5529 5533 5536 5539 5542 5545 5547 5550 5553 5556 5558
5487 5485 5483 5481 5480 5479 5478 5477 5477 5477 5477 5477 5478 5478 5478 5479 5480 5481 5482 5483 5485 5487 5489 5491 5494 5496 5499 5501 5504 5507 5511 5515 5518 5521 5524 5527 5530 5533 5535 5538 5541 5543 5546
5479 5476 5475 5473 5471 5470 5469 5469 5468 5468 5468 5469 5469 5470 5470 5471 5472 5474 5475 5476 5477 5479 5481 5483 5485 5488 5490 5492 5495 5498 5501 5504 5508 5511 5513 5516 5518 5521 5524 5526 5529 5531 5533
5470 5468 5466 5464 5462 5461 5460 5460 5459 5459 5460 5460 5461 5461 5462 5463 5464 5466 5467 5468 5469 5471 5473 5475 5477 5480 5482 5484 5486 5489 5492 5494 5497 5500 5503 5505 5508 5510 5512 5515 5517 5519 5521
5461 5459 5457 5455 5453 5452 5451 5451 5451 5451 5451 5452 5452 5453 5454 5455 5456 5458 5459 5460 5462 5463 5465 5467 5469 5471 5474 5476 5478 5480 5483 5485 5487 5490 5492 5495 5497 5499 5502 5504 5506 5507 5509
5453 5450 5448 5446 5445 5444 5443 5443 5442 5442 5443 5443 5444 5445 5446 5447 5449 5450 5451 5452 5454 5455 5457 5459 5461 5463 5465 5467 5469 5471 5473 5476 5478 5480 5482 5484 5487 5489 5491 5493 5495 5496 5498
5444 5442 5439 5437 5436 5435 5434 5434 5434 5434 5434 5435 5436 5437 5438 5439 5441 5442 5443 5444 5446 5447 5449 5451 5453 5455 5457 5459 5461 5463 5464 5466 5468 5470 5472 5474 5476 5478 5480 5482 5484 5485 5486